轨道通信卫星FM04星 (ORBCOMM FM04)

导读 | 豆包AI

ORBCOMM FM 4是ORBCOMM低轨卫星星座的一员,于1998年2月10日成功发射。作为专门服务于机器对机器通信和物联网应用的卫星,它运行在近地轨道,依托窄带通信技术,可实现全球范围低成本短数据传输,提供寻呼、远程监控、数据采集等服务,在民用基础设施监测和军事战场信息传输等领域都具备应用价值。

基本信息
目录编号:
25159
目录名称:
ORBCOMM FM 4
国际标识:
1998-007C
轨道中心:
EARTH
卫星名称:
轨道通信卫星FM04星
卫星全名:
轨道通信卫星FM04星 (ORBCOMM FM04)
卫星状态:
在轨 (已飞行10258 天)
发射日期:
1998-02-10 UTC
国别 :
(ORB)
星等 :
--
轨道信息
数据来源 国际轨道数据
星历时间: 2026-03-13T15:22:34+0800
16小时前
查看轨道信息
半长轴: 7151.419km
偏心率: 0.0038668
轨道倾角: 107.961°
近地点辐角 136.124°
升交点赤经 332.147°
平近点角 224.298°
近地点: 745.628km
远地点: 800.936km
周期: 100.311分钟
每日圈数: 14.355372
详细信息
固有亮度:
8
最大亮度:
6.9
平衡模式:
三轴稳定
覆盖范围:
全球
运营商:
轨道通信公司
运营商所在国:
美国
制造商(研发单位):
轨道ATK公司
制造商所在国:
美国
使用方式:
暂无
卫星简介
轨道通信FM(Orbcomm FM)是一系列低地球轨道通信卫星,由美国卫星通信公司 Orbcomm运营。 截至2015年12月,已有63颗此类卫星绕地球运行。该卫星仍在工作。
2D轨道图
3D轨道图
轨道高度分析图
轨道倾角分析图
轨道综合分析图
查看轨道综合分析图